Year,Month,Day,Hour,Minute,Value (Times are PST for temperature in C)
2016,07,24,00,00,15.40
2016,07,24,00,01,15.40
2016,07,24,00,02,15.30
2016,07,24,00,03,15.30
2016,07,24,00,04,15.30
2016,07,24,00,05,15.30
2016,07,24,00,06,15.30
2016,07,24,00,07,15.30
2016,07,24,00,08,15.30
2016,07,24,00,09,15.30
2016,07,24,00,10,15.30
2016,07,24,00,11,15.30
2016,07,24,00,12,15.30
2016,07,24,00,13,15.30
2016,07,24,00,14,15.30
2016,07,24,00,15,15.30
2016,07,24,00,16,15.20
2016,07,24,00,17,15.20
2016,07,24,00,18,15.20
2016,07,24,00,19,15.20
2016,07,24,00,20,15.20
2016,07,24,00,21,15.10
2016,07,24,00,22,15.10
2016,07,24,00,23,15.10
2016,07,24,00,24,15.00
2016,07,24,00,25,15.00
2016,07,24,00,26,15.00
2016,07,24,00,27,15.00
2016,07,24,00,28,15.00
2016,07,24,00,29,15.00
2016,07,24,00,30,15.00
2016,07,24,00,31,15.00
2016,07,24,00,32,15.00
2016,07,24,00,33,14.90
2016,07,24,00,34,14.90
2016,07,24,00,35,14.90
2016,07,24,00,36,14.90
2016,07,24,00,37,14.90
2016,07,24,00,38,14.90
2016,07,24,00,39,14.80
2016,07,24,00,40,14.80
2016,07,24,00,41,14.80
2016,07,24,00,42,14.80
2016,07,24,00,43,14.80
2016,07,24,00,44,14.70
2016,07,24,00,45,14.70
2016,07,24,00,46,14.70
2016,07,24,00,47,14.70
2016,07,24,00,48,14.60
2016,07,24,00,49,14.60
2016,07,24,00,50,14.60
2016,07,24,00,51,14.60
2016,07,24,00,52,14.60
2016,07,24,00,53,14.50
2016,07,24,00,54,14.50
2016,07,24,00,55,14.50
2016,07,24,00,56,14.50
2016,07,24,00,57,14.40
2016,07,24,00,58,14.40
2016,07,24,00,59,14.40
2016,07,24,01,00,14.30
2016,07,24,01,01,14.30
2016,07,24,01,02,14.30
2016,07,24,01,03,14.20
2016,07,24,01,04,14.20
2016,07,24,01,05,14.20
2016,07,24,01,06,14.20
2016,07,24,01,07,14.20
2016,07,24,01,08,14.20
2016,07,24,01,09,14.20
2016,07,24,01,10,14.20
2016,07,24,01,11,14.20
2016,07,24,01,12,14.20
2016,07,24,01,13,14.20
2016,07,24,01,14,14.20
2016,07,24,01,15,14.10
2016,07,24,01,16,14.10
2016,07,24,01,17,14.10
2016,07,24,01,18,14.10
2016,07,24,01,19,14.10
2016,07,24,01,20,14.00
2016,07,24,01,21,14.00
2016,07,24,01,22,14.00
2016,07,24,01,23,14.00
2016,07,24,01,24,14.00
2016,07,24,01,25,13.90
2016,07,24,01,26,13.90
2016,07,24,01,27,13.90
2016,07,24,01,28,13.90
2016,07,24,01,29,13.90
2016,07,24,01,30,13.90
2016,07,24,01,31,13.80
2016,07,24,01,32,13.80
2016,07,24,01,33,13.80
2016,07,24,01,34,13.80
2016,07,24,01,35,13.80
2016,07,24,01,36,13.80
2016,07,24,01,37,13.80
2016,07,24,01,38,13.80
2016,07,24,01,39,13.70
2016,07,24,01,40,13.70
2016,07,24,01,41,13.70
2016,07,24,01,42,13.70
2016,07,24,01,43,13.70
2016,07,24,01,44,13.70
2016,07,24,01,45,13.70
2016,07,24,01,46,13.70
2016,07,24,01,47,13.70
2016,07,24,01,48,13.70
2016,07,24,01,49,13.70
2016,07,24,01,50,13.70
2016,07,24,01,51,13.70
2016,07,24,01,52,13.70
2016,07,24,01,53,13.70
2016,07,24,01,54,13.60
2016,07,24,01,55,13.60
2016,07,24,01,56,13.60
2016,07,24,01,57,13.60
2016,07,24,01,58,13.60
2016,07,24,01,59,13.60
2016,07,24,02,00,13.60
2016,07,24,02,01,13.60
2016,07,24,02,02,13.60
2016,07,24,02,03,13.60
2016,07,24,02,04,13.50
2016,07,24,02,05,13.50
2016,07,24,02,06,13.50
2016,07,24,02,07,13.50
2016,07,24,02,08,13.50
2016,07,24,02,09,13.50
2016,07,24,02,10,13.50
2016,07,24,02,11,13.50
2016,07,24,02,12,13.50
2016,07,24,02,13,13.40
2016,07,24,02,14,13.40
2016,07,24,02,15,13.40
2016,07,24,02,16,13.40
2016,07,24,02,17,13.40
2016,07,24,02,18,13.40
2016,07,24,02,19,13.30
2016,07,24,02,20,13.30
2016,07,24,02,21,13.30
2016,07,24,02,22,13.30
2016,07,24,02,23,13.30
2016,07,24,02,24,13.30
2016,07,24,02,25,13.30
2016,07,24,02,26,13.30
2016,07,24,02,27,13.20
2016,07,24,02,28,13.20
2016,07,24,02,29,13.20
2016,07,24,02,30,13.20
2016,07,24,02,31,13.20
2016,07,24,02,32,13.20
2016,07,24,02,33,13.20
2016,07,24,02,34,13.10
2016,07,24,02,35,13.10
2016,07,24,02,36,13.10
2016,07,24,02,37,13.10
2016,07,24,02,38,13.10
2016,07,24,02,39,13.00
2016,07,24,02,40,13.00
2016,07,24,02,41,13.00
2016,07,24,02,42,13.00
2016,07,24,02,43,12.90
2016,07,24,02,44,12.90
2016,07,24,02,45,12.90
2016,07,24,02,46,12.90
2016,07,24,02,47,12.90
2016,07,24,02,48,12.90
2016,07,24,02,49,12.90
2016,07,24,02,50,12.80
2016,07,24,02,51,12.80
2016,07,24,02,52,12.80
2016,07,24,02,53,12.80
2016,07,24,02,54,12.80
2016,07,24,02,55,12.80
2016,07,24,02,56,12.80
2016,07,24,02,57,12.80
2016,07,24,02,58,12.80
2016,07,24,02,59,12.80
2016,07,24,03,00,12.80
2016,07,24,03,01,12.80
2016,07,24,03,02,12.80
2016,07,24,03,03,12.80
2016,07,24,03,04,12.80
2016,07,24,03,05,12.80
2016,07,24,03,06,12.80
2016,07,24,03,07,12.80
2016,07,24,03,08,12.80
2016,07,24,03,09,12.80
2016,07,24,03,10,12.80
2016,07,24,03,11,12.80
2016,07,24,03,12,12.80
2016,07,24,03,13,12.80
2016,07,24,03,14,12.80
2016,07,24,03,15,12.70
2016,07,24,03,16,12.70
2016,07,24,03,17,12.70
2016,07,24,03,18,12.70
2016,07,24,03,19,12.60
2016,07,24,03,20,12.60
2016,07,24,03,21,12.60
2016,07,24,03,22,12.60
2016,07,24,03,23,12.60
2016,07,24,03,24,12.60
2016,07,24,03,25,12.60
2016,07,24,03,26,12.60
2016,07,24,03,27,12.60
2016,07,24,03,28,12.60
2016,07,24,03,29,12.60
2016,07,24,03,30,12.60
2016,07,24,03,31,12.50
2016,07,24,03,32,12.50
2016,07,24,03,33,12.50
2016,07,24,03,34,12.50
2016,07,24,03,35,12.50
2016,07,24,03,36,12.50
2016,07,24,03,37,12.40
2016,07,24,03,38,12.40
2016,07,24,03,39,12.40
2016,07,24,03,40,12.40
2016,07,24,03,41,12.40
2016,07,24,03,42,12.40
2016,07,24,03,43,12.40
2016,07,24,03,44,12.40
2016,07,24,03,45,12.40
2016,07,24,03,46,12.40
2016,07,24,03,47,12.40
2016,07,24,03,48,12.40
2016,07,24,03,49,12.40
2016,07,24,03,50,12.40
2016,07,24,03,51,12.40
2016,07,24,03,52,12.40
2016,07,24,03,53,12.40
2016,07,24,03,54,12.40
2016,07,24,03,55,12.30
2016,07,24,03,56,12.30
2016,07,24,03,57,12.30
2016,07,24,03,58,12.30
2016,07,24,03,59,12.30
2016,07,24,04,00,12.30
2016,07,24,04,01,12.30
2016,07,24,04,02,12.30
2016,07,24,04,03,12.30
2016,07,24,04,04,12.30
2016,07,24,04,05,12.30
2016,07,24,04,06,12.30
2016,07,24,04,07,12.30
2016,07,24,04,08,12.20
2016,07,24,04,09,12.20
2016,07,24,04,10,12.20
2016,07,24,04,11,12.20
2016,07,24,04,12,12.20
2016,07,24,04,13,12.20
2016,07,24,04,14,12.20
2016,07,24,04,15,12.20
2016,07,24,04,16,12.20
2016,07,24,04,17,12.20
2016,07,24,04,18,12.20
2016,07,24,04,19,12.20
2016,07,24,04,20,12.20
2016,07,24,04,21,12.20
2016,07,24,04,22,12.20
2016,07,24,04,23,12.20
2016,07,24,04,24,12.20
2016,07,24,04,25,12.20
2016,07,24,04,26,12.20
2016,07,24,04,27,12.20
2016,07,24,04,28,12.20
2016,07,24,04,29,12.20
2016,07,24,04,30,12.20
2016,07,24,04,31,12.10
2016,07,24,04,32,12.10
2016,07,24,04,33,12.10
2016,07,24,04,34,12.10
2016,07,24,04,35,12.10
2016,07,24,04,36,12.10
2016,07,24,04,37,12.10
2016,07,24,04,38,12.10
2016,07,24,04,39,12.10
2016,07,24,04,40,12.10
2016,07,24,04,41,12.10
2016,07,24,04,42,12.10
2016,07,24,04,43,12.00
2016,07,24,04,44,12.00
2016,07,24,04,45,12.00
2016,07,24,04,46,12.00
2016,07,24,04,47,12.00
2016,07,24,04,48,12.00
2016,07,24,04,49,12.00
2016,07,24,04,50,12.00
2016,07,24,04,51,12.00
2016,07,24,04,52,12.00
2016,07,24,04,53,12.00
2016,07,24,04,54,12.00
2016,07,24,04,55,11.90
2016,07,24,04,56,11.90
2016,07,24,04,57,11.90
2016,07,24,04,58,11.90
2016,07,24,04,59,11.90
2016,07,24,05,00,11.90
2016,07,24,05,01,11.90
2016,07,24,05,02,11.90
2016,07,24,05,03,11.90
2016,07,24,05,04,11.90
2016,07,24,05,05,11.90
2016,07,24,05,06,11.90
2016,07,24,05,07,11.90
2016,07,24,05,08,11.90
2016,07,24,05,09,11.90
2016,07,24,05,10,11.90
2016,07,24,05,11,11.90
2016,07,24,05,12,11.90
2016,07,24,05,13,11.90
2016,07,24,05,14,11.90
2016,07,24,05,15,11.90
2016,07,24,05,16,11.80
2016,07,24,05,17,11.80
2016,07,24,05,18,11.80
2016,07,24,05,19,11.80
2016,07,24,05,20,11.80
2016,07,24,05,21,11.80
2016,07,24,05,22,11.80
2016,07,24,05,23,11.70
2016,07,24,05,24,11.70
2016,07,24,05,25,11.70
2016,07,24,05,26,11.70
2016,07,24,05,27,11.70
2016,07,24,05,28,11.70
2016,07,24,05,29,11.70
2016,07,24,05,30,11.70
2016,07,24,05,31,11.70
2016,07,24,05,32,11.70
2016,07,24,05,33,11.70
2016,07,24,05,34,11.70
2016,07,24,05,35,11.70
2016,07,24,05,36,11.70
2016,07,24,05,37,11.80
2016,07,24,05,38,11.80
2016,07,24,05,39,11.80
2016,07,24,05,40,11.80
2016,07,24,05,41,11.70
2016,07,24,05,42,11.70
2016,07,24,05,43,11.70
2016,07,24,05,44,11.70
2016,07,24,05,45,11.70
2016,07,24,05,46,11.70
2016,07,24,05,47,11.60
2016,07,24,05,48,11.60
2016,07,24,05,49,11.60
2016,07,24,05,50,11.60
2016,07,24,05,51,11.60
2016,07,24,05,52,11.60
2016,07,24,05,53,11.60
2016,07,24,05,54,11.60
2016,07,24,05,55,11.60
2016,07,24,05,56,11.60
2016,07,24,05,57,11.60
2016,07,24,05,58,11.60
2016,07,24,05,59,11.60
2016,07,24,06,00,11.60
2016,07,24,06,01,11.70
2016,07,24,06,02,11.70
2016,07,24,06,03,11.70
2016,07,24,06,04,11.70
2016,07,24,06,05,11.80
2016,07,24,06,06,11.80
2016,07,24,06,07,11.80
2016,07,24,06,08,11.80
2016,07,24,06,09,11.80
2016,07,24,06,10,11.80
2016,07,24,06,11,11.80
2016,07,24,06,12,11.80
2016,07,24,06,13,11.80
2016,07,24,06,14,11.80
2016,07,24,06,15,11.70
2016,07,24,06,16,11.70
2016,07,24,06,17,11.70
2016,07,24,06,18,11.70
2016,07,24,06,19,11.70
2016,07,24,06,20,11.70
2016,07,24,06,21,11.80
2016,07,24,06,22,11.80
2016,07,24,06,23,11.80
2016,07,24,06,24,11.90
2016,07,24,06,25,11.90
2016,07,24,06,26,11.90
2016,07,24,06,27,12.00
2016,07,24,06,28,12.10
2016,07,24,06,29,12.10
2016,07,24,06,30,12.20
2016,07,24,06,31,12.30
2016,07,24,06,32,12.30
2016,07,24,06,33,12.30
2016,07,24,06,34,12.30
2016,07,24,06,35,12.30
2016,07,24,06,36,12.40
2016,07,24,06,37,12.40
2016,07,24,06,38,12.40
2016,07,24,06,39,12.50
2016,07,24,06,40,12.50
2016,07,24,06,41,12.50
2016,07,24,06,42,12.50
2016,07,24,06,43,12.50
2016,07,24,06,44,12.60
2016,07,24,06,45,12.70
2016,07,24,06,46,12.70
2016,07,24,06,47,12.80
2016,07,24,06,48,12.80
2016,07,24,06,49,12.80
2016,07,24,06,50,12.80
2016,07,24,06,51,12.90
2016,07,24,06,52,13.00
2016,07,24,06,53,13.10
2016,07,24,06,54,13.20
2016,07,24,06,55,13.20
2016,07,24,06,56,13.30
2016,07,24,06,57,13.50
2016,07,24,06,58,13.50
2016,07,24,06,59,13.70
2016,07,24,07,00,13.70
2016,07,24,07,01,13.90
2016,07,24,07,02,13.90
2016,07,24,07,03,14.00
2016,07,24,07,04,14.10
2016,07,24,07,05,14.20
2016,07,24,07,06,14.20
2016,07,24,07,07,14.20
2016,07,24,07,08,14.20
2016,07,24,07,09,14.30
2016,07,24,07,10,14.30
2016,07,24,07,11,14.40
2016,07,24,07,12,14.40
2016,07,24,07,13,14.50
2016,07,24,07,14,14.50
2016,07,24,07,15,14.60
2016,07,24,07,16,14.60
2016,07,24,07,17,14.60
2016,07,24,07,18,14.60
2016,07,24,07,19,14.70
2016,07,24,07,20,14.80
2016,07,24,07,21,14.90
2016,07,24,07,22,15.00
2016,07,24,07,23,15.10
2016,07,24,07,24,15.10
2016,07,24,07,25,15.30
2016,07,24,07,26,15.40
2016,07,24,07,27,15.50
2016,07,24,07,28,15.60
2016,07,24,07,29,15.70
2016,07,24,07,30,15.80
2016,07,24,07,31,15.90
2016,07,24,07,32,16.00
2016,07,24,07,33,16.10
2016,07,24,07,34,16.20
2016,07,24,07,35,16.30
2016,07,24,07,36,16.30
2016,07,24,07,37,16.30
2016,07,24,07,38,16.30
2016,07,24,07,39,16.30
2016,07,24,07,40,16.30
2016,07,24,07,41,16.40
2016,07,24,07,42,16.50
2016,07,24,07,43,16.60
2016,07,24,07,44,16.60
2016,07,24,07,45,16.70
2016,07,24,07,46,16.70
2016,07,24,07,47,16.70
2016,07,24,07,48,16.80
2016,07,24,07,49,16.90
2016,07,24,07,50,16.90
2016,07,24,07,51,17.00
2016,07,24,07,52,17.00
2016,07,24,07,53,17.10
2016,07,24,07,54,17.20
2016,07,24,07,55,17.30
2016,07,24,07,56,17.40
2016,07,24,07,57,17.50
2016,07,24,07,58,17.50
2016,07,24,07,59,17.60
2016,07,24,08,00,17.60
2016,07,24,08,01,17.60
2016,07,24,08,02,17.60
2016,07,24,08,03,17.70
2016,07,24,08,04,17.70
2016,07,24,08,05,17.70
2016,07,24,08,06,17.80
2016,07,24,08,07,17.80
2016,07,24,08,08,17.70
2016,07,24,08,09,17.70
2016,07,24,08,10,17.60
2016,07,24,08,11,17.60
2016,07,24,08,12,17.60
2016,07,24,08,13,17.70
2016,07,24,08,14,17.80
2016,07,24,08,15,17.80
2016,07,24,08,16,17.80
2016,07,24,08,17,17.70
2016,07,24,08,18,17.70
2016,07,24,08,19,17.70
2016,07,24,08,20,17.60
2016,07,24,08,21,17.60
2016,07,24,08,22,17.60
2016,07,24,08,23,17.60
2016,07,24,08,24,17.60
2016,07,24,08,25,17.70
2016,07,24,08,26,17.70
2016,07,24,08,27,17.70
2016,07,24,08,28,17.80
2016,07,24,08,29,17.80
2016,07,24,08,30,17.90
2016,07,24,08,31,17.90
2016,07,24,08,32,17.90
2016,07,24,08,33,18.10
2016,07,24,08,34,18.20
2016,07,24,08,35,18.40
2016,07,24,08,36,18.50
2016,07,24,08,37,18.70
2016,07,24,08,38,18.80
2016,07,24,08,39,18.90
2016,07,24,08,40,19.10
2016,07,24,08,41,19.20
2016,07,24,08,42,19.20
2016,07,24,08,43,19.30
2016,07,24,08,44,19.40
2016,07,24,08,45,19.40
2016,07,24,08,46,19.50
2016,07,24,08,47,19.50
2016,07,24,08,48,19.60
2016,07,24,08,49,19.60
2016,07,24,08,50,19.70
2016,07,24,08,51,19.80
2016,07,24,08,52,19.90
2016,07,24,08,53,19.90
2016,07,24,08,54,19.90
2016,07,24,08,55,19.90
2016,07,24,08,56,19.90
2016,07,24,08,57,19.90
2016,07,24,08,58,19.90
2016,07,24,08,59,19.90
2016,07,24,09,00,19.90
2016,07,24,09,01,19.90
2016,07,24,09,02,19.90
2016,07,24,09,03,19.90
2016,07,24,09,04,20.00
2016,07,24,09,05,20.20
2016,07,24,09,06,20.20
2016,07,24,09,07,20.30
2016,07,24,09,08,20.50
2016,07,24,09,09,20.60
2016,07,24,09,10,20.60
2016,07,24,09,11,20.70
2016,07,24,09,12,20.80
2016,07,24,09,13,20.90
2016,07,24,09,14,21.00
2016,07,24,09,15,21.00
2016,07,24,09,16,21.00
2016,07,24,09,17,21.00
2016,07,24,09,18,21.00
2016,07,24,09,19,21.00
2016,07,24,09,20,21.10
2016,07,24,09,21,21.10
2016,07,24,09,22,21.20
2016,07,24,09,23,21.20
2016,07,24,09,24,21.30
2016,07,24,09,25,21.30
2016,07,24,09,26,21.30
2016,07,24,09,27,21.30
2016,07,24,09,28,21.30
2016,07,24,09,29,21.30
2016,07,24,09,30,21.30
2016,07,24,09,31,21.30
2016,07,24,09,32,21.30
2016,07,24,09,33,21.30
2016,07,24,09,34,21.30
2016,07,24,09,35,21.30
2016,07,24,09,36,21.20
2016,07,24,09,37,21.20
2016,07,24,09,38,21.20
2016,07,24,09,39,21.10
2016,07,24,09,40,21.10
2016,07,24,09,41,21.10
2016,07,24,09,42,21.10
2016,07,24,09,43,21.20
2016,07,24,09,44,21.30
2016,07,24,09,45,21.40
2016,07,24,09,46,21.50
2016,07,24,09,47,21.60
2016,07,24,09,48,21.60
2016,07,24,09,49,21.60
2016,07,24,09,50,21.60
2016,07,24,09,51,21.70
2016,07,24,09,52,21.70
2016,07,24,09,53,21.70
2016,07,24,09,54,21.60
2016,07,24,09,55,21.60
2016,07,24,09,56,21.60
2016,07,24,09,57,21.60
2016,07,24,09,58,21.60
2016,07,24,09,59,21.60
2016,07,24,10,00,21.40
2016,07,24,10,01,21.40
2016,07,24,10,02,21.30
2016,07,24,10,03,21.20
2016,07,24,10,04,21.10
2016,07,24,10,05,21.10
2016,07,24,10,06,21.10
2016,07,24,10,07,21.10
2016,07,24,10,08,21.00
2016,07,24,10,09,21.00
2016,07,24,10,10,20.90
2016,07,24,10,11,20.80
2016,07,24,10,12,20.70
2016,07,24,10,13,20.70
2016,07,24,10,14,20.70
2016,07,24,10,15,20.60
2016,07,24,10,16,20.50
2016,07,24,10,17,20.40
2016,07,24,10,18,20.30
2016,07,24,10,19,20.10
2016,07,24,10,20,19.90
2016,07,24,10,21,19.80
2016,07,24,10,22,19.80
2016,07,24,10,23,19.90
2016,07,24,10,24,19.90
2016,07,24,10,25,19.90
2016,07,24,10,26,19.90
2016,07,24,10,27,19.90
2016,07,24,10,28,19.90
2016,07,24,10,29,20.00
2016,07,24,10,30,20.10
2016,07,24,10,31,20.20
2016,07,24,10,32,20.20
2016,07,24,10,33,20.30
2016,07,24,10,34,20.40
2016,07,24,10,35,20.40
2016,07,24,10,36,20.50
2016,07,24,10,37,20.60
2016,07,24,10,38,20.60
2016,07,24,10,39,20.60
2016,07,24,10,40,20.50
2016,07,24,10,41,20.50
2016,07,24,10,42,20.50
2016,07,24,10,43,20.50
2016,07,24,10,44,20.50
2016,07,24,10,45,20.60
2016,07,24,10,46,20.70
2016,07,24,10,47,20.80
2016,07,24,10,48,20.70
2016,07,24,10,49,20.60
2016,07,24,10,50,20.50
2016,07,24,10,51,20.50
2016,07,24,10,52,20.50
2016,07,24,10,53,20.40
2016,07,24,10,54,20.50
2016,07,24,10,55,20.70
2016,07,24,10,56,20.90
2016,07,24,10,57,21.00
2016,07,24,10,58,20.90
2016,07,24,10,59,20.90
2016,07,24,11,00,21.00
2016,07,24,11,01,20.90
2016,07,24,11,02,20.80
2016,07,24,11,03,20.70
2016,07,24,11,04,20.70
2016,07,24,11,05,20.70
2016,07,24,11,06,20.70
2016,07,24,11,07,20.70
2016,07,24,11,08,20.70
2016,07,24,11,09,20.70
2016,07,24,11,10,20.70
2016,07,24,11,11,20.60
2016,07,24,11,12,20.60
2016,07,24,11,13,20.70
2016,07,24,11,14,20.70
2016,07,24,11,15,20.80
2016,07,24,11,16,20.80
2016,07,24,11,17,20.80
2016,07,24,11,18,21.00
2016,07,24,11,19,21.10
2016,07,24,11,20,21.20
2016,07,24,11,21,21.30
2016,07,24,11,22,21.30
2016,07,24,11,23,21.30
2016,07,24,11,24,21.50
2016,07,24,11,25,21.60
2016,07,24,11,26,21.60
2016,07,24,11,27,21.50
2016,07,24,11,28,21.40
2016,07,24,11,29,21.60
2016,07,24,11,30,21.60
2016,07,24,11,31,21.60
2016,07,24,11,32,21.60
2016,07,24,11,33,21.60
2016,07,24,11,34,21.60
2016,07,24,11,35,21.60
2016,07,24,11,36,21.60
2016,07,24,11,37,21.60
2016,07,24,11,38,21.60
2016,07,24,11,39,21.70
2016,07,24,11,40,21.80
2016,07,24,11,41,21.90
2016,07,24,11,42,21.90
2016,07,24,11,43,21.80
2016,07,24,11,44,21.90
2016,07,24,11,45,22.00
2016,07,24,11,46,22.00
2016,07,24,11,47,22.10
2016,07,24,11,48,22.10
2016,07,24,11,49,22.00
2016,07,24,11,50,21.80
2016,07,24,11,51,21.80
2016,07,24,11,52,21.70
2016,07,24,11,53,21.80
2016,07,24,11,54,22.00
2016,07,24,11,55,22.00
2016,07,24,11,56,22.10
2016,07,24,11,57,22.10
2016,07,24,11,58,22.00
2016,07,24,11,59,22.00
2016,07,24,12,00,21.90
2016,07,24,12,01,21.80
2016,07,24,12,02,21.70
2016,07,24,12,03,21.80
2016,07,24,12,04,22.00
2016,07,24,12,05,22.20
2016,07,24,12,06,22.30
2016,07,24,12,07,22.30
2016,07,24,12,08,22.40
2016,07,24,12,09,22.40
2016,07,24,12,10,22.20
2016,07,24,12,11,22.10
2016,07,24,12,12,22.00
2016,07,24,12,13,21.90
2016,07,24,12,14,21.70
2016,07,24,12,15,21.60
2016,07,24,12,16,21.60
2016,07,24,12,17,21.60
2016,07,24,12,18,21.60
2016,07,24,12,19,21.70
2016,07,24,12,20,21.70
2016,07,24,12,21,21.70
2016,07,24,12,22,21.70
2016,07,24,12,23,21.80
2016,07,24,12,24,22.00
2016,07,24,12,25,22.10
2016,07,24,12,26,22.30
2016,07,24,12,27,22.30
2016,07,24,12,28,22.30
2016,07,24,12,29,22.30
2016,07,24,12,30,22.30
2016,07,24,12,31,22.40
2016,07,24,12,32,22.50
2016,07,24,12,33,22.40
2016,07,24,12,34,22.30
2016,07,24,12,35,22.10
2016,07,24,12,36,22.00
2016,07,24,12,37,22.10
2016,07,24,12,38,22.10
2016,07,24,12,39,22.20
2016,07,24,12,40,22.30
2016,07,24,12,41,22.40
2016,07,24,12,42,22.40
2016,07,24,12,43,22.40
2016,07,24,12,44,22.40
2016,07,24,12,45,22.50
2016,07,24,12,46,22.60
2016,07,24,12,47,22.60
2016,07,24,12,48,22.70
2016,07,24,12,49,22.70
2016,07,24,12,50,22.70
2016,07,24,12,51,22.60
2016,07,24,12,52,22.60
2016,07,24,12,53,22.50
2016,07,24,12,54,22.50
2016,07,24,12,55,22.30
2016,07,24,12,56,22.30
2016,07,24,12,57,22.30
2016,07,24,12,58,22.20
2016,07,24,12,59,22.10
2016,07,24,13,00,22.10
2016,07,24,13,01,22.30
2016,07,24,13,02,22.50
2016,07,24,13,03,22.40
2016,07,24,13,04,22.20
2016,07,24,13,05,22.20
2016,07,24,13,06,22.20
2016,07,24,13,07,22.20
2016,07,24,13,08,22.20
2016,07,24,13,09,22.20
2016,07,24,13,10,22.30
2016,07,24,13,11,22.50
2016,07,24,13,12,22.80
2016,07,24,13,13,23.00
2016,07,24,13,14,23.00
2016,07,24,13,15,22.90
2016,07,24,13,16,22.80
2016,07,24,13,17,22.70
2016,07,24,13,18,22.70
2016,07,24,13,19,22.80
2016,07,24,13,20,22.80
2016,07,24,13,21,22.70
2016,07,24,13,22,22.80
2016,07,24,13,23,22.90
2016,07,24,13,24,23.00
2016,07,24,13,25,23.00
2016,07,24,13,26,22.90
2016,07,24,13,27,22.90
2016,07,24,13,28,22.90
2016,07,24,13,29,22.90
2016,07,24,13,30,23.00
2016,07,24,13,31,23.30
2016,07,24,13,32,23.30
2016,07,24,13,33,23.30
2016,07,24,13,34,23.40
2016,07,24,13,35,23.40
2016,07,24,13,36,23.40
2016,07,24,13,37,23.40
2016,07,24,13,38,23.50
2016,07,24,13,39,23.60
2016,07,24,13,40,23.70
2016,07,24,13,41,23.70
2016,07,24,13,42,23.60
2016,07,24,13,43,23.50
2016,07,24,13,44,23.40
2016,07,24,13,45,23.30
2016,07,24,13,46,23.40
2016,07,24,13,47,23.50
2016,07,24,13,48,23.60
2016,07,24,13,49,23.70
2016,07,24,13,50,23.90
2016,07,24,13,51,23.90
2016,07,24,13,52,23.90
2016,07,24,13,53,23.80
2016,07,24,13,54,23.80
2016,07,24,13,55,23.80
2016,07,24,13,56,23.70
2016,07,24,13,57,23.70
2016,07,24,13,58,23.70
2016,07,24,13,59,23.80
2016,07,24,14,00,23.90
2016,07,24,14,01,24.00
2016,07,24,14,02,24.10
2016,07,24,14,03,24.00
2016,07,24,14,04,23.90
2016,07,24,14,05,23.70
2016,07,24,14,06,23.70
2016,07,24,14,07,23.70
2016,07,24,14,08,23.70
2016,07,24,14,09,23.70
2016,07,24,14,10,23.70
2016,07,24,14,11,23.50
2016,07,24,14,12,23.30
2016,07,24,14,13,23.20
2016,07,24,14,14,23.00
2016,07,24,14,15,22.90
2016,07,24,14,16,22.90
2016,07,24,14,17,22.90
2016,07,24,14,18,23.00
2016,07,24,14,19,23.20
2016,07,24,14,20,23.30
2016,07,24,14,21,23.30
2016,07,24,14,22,23.40
2016,07,24,14,23,23.40
2016,07,24,14,24,23.30
2016,07,24,14,25,23.30
2016,07,24,14,26,23.30
2016,07,24,14,27,23.30
2016,07,24,14,28,23.40
2016,07,24,14,29,23.40
2016,07,24,14,30,23.30
2016,07,24,14,31,23.40
2016,07,24,14,32,23.50
2016,07,24,14,33,23.60
2016,07,24,14,34,23.60
2016,07,24,14,35,23.60
2016,07,24,14,36,23.60
2016,07,24,14,37,23.40
2016,07,24,14,38,23.30
2016,07,24,14,39,23.40
2016,07,24,14,40,23.60
2016,07,24,14,41,23.70
2016,07,24,14,42,23.70
2016,07,24,14,43,23.70
2016,07,24,14,44,23.70
2016,07,24,14,45,23.50
2016,07,24,14,46,23.40
2016,07,24,14,47,23.30
2016,07,24,14,48,23.30
2016,07,24,14,49,23.40
2016,07,24,14,50,23.60
2016,07,24,14,51,23.60
2016,07,24,14,52,23.60
2016,07,24,14,53,23.70
2016,07,24,14,54,23.70
2016,07,24,14,55,23.70
2016,07,24,14,56,23.90
2016,07,24,14,57,24.00
2016,07,24,14,58,24.00
2016,07,24,14,59,23.90
2016,07,24,15,00,23.90
2016,07,24,15,01,23.90
2016,07,24,15,02,24.10
2016,07,24,15,03,24.20
2016,07,24,15,04,24.20
2016,07,24,15,05,24.10
2016,07,24,15,06,24.00
2016,07,24,15,07,23.90
2016,07,24,15,08,23.80
2016,07,24,15,09,23.80
2016,07,24,15,10,23.70
2016,07,24,15,11,23.70
2016,07,24,15,12,23.60
2016,07,24,15,13,23.60
2016,07,24,15,14,23.60
2016,07,24,15,15,23.40
2016,07,24,15,16,23.40
2016,07,24,15,17,23.30
2016,07,24,15,18,23.30
2016,07,24,15,19,23.30
2016,07,24,15,20,23.40
2016,07,24,15,21,23.40
2016,07,24,15,22,23.30
2016,07,24,15,23,23.30
2016,07,24,15,24,23.30
2016,07,24,15,25,23.50
2016,07,24,15,26,23.60
2016,07,24,15,27,23.70
2016,07,24,15,28,23.70
2016,07,24,15,29,23.70
2016,07,24,15,30,23.70
2016,07,24,15,31,23.70
2016,07,24,15,32,23.60
2016,07,24,15,33,23.50
2016,07,24,15,34,23.30
2016,07,24,15,35,23.20
2016,07,24,15,36,23.20
2016,07,24,15,37,23.30
2016,07,24,15,38,23.30
2016,07,24,15,39,23.20
2016,07,24,15,40,23.20
2016,07,24,15,41,23.20
2016,07,24,15,42,23.20
2016,07,24,15,43,23.30
2016,07,24,15,44,23.10
2016,07,24,15,45,23.00
2016,07,24,15,46,22.90
2016,07,24,15,47,22.90
2016,07,24,15,48,23.00
2016,07,24,15,49,23.10
2016,07,24,15,50,23.20
2016,07,24,15,51,23.30
2016,07,24,15,52,23.30
2016,07,24,15,53,23.30
2016,07,24,15,54,23.20
2016,07,24,15,55,23.20
2016,07,24,15,56,23.20
2016,07,24,15,57,23.30
2016,07,24,15,58,23.30
2016,07,24,15,59,23.40
2016,07,24,16,00,23.40
2016,07,24,16,01,23.50
2016,07,24,16,02,23.50
2016,07,24,16,03,23.60
2016,07,24,16,04,23.70
2016,07,24,16,05,23.80
2016,07,24,16,06,23.80
2016,07,24,16,07,23.70
2016,07,24,16,08,23.70
2016,07,24,16,09,23.60
2016,07,24,16,10,23.50
2016,07,24,16,11,23.30
2016,07,24,16,12,23.30
2016,07,24,16,13,23.40
2016,07,24,16,14,23.60
2016,07,24,16,15,23.70
2016,07,24,16,16,23.80
2016,07,24,16,17,23.90
2016,07,24,16,18,23.80
2016,07,24,16,19,23.70
2016,07,24,16,20,23.70
2016,07,24,16,21,23.70
2016,07,24,16,22,23.70
2016,07,24,16,23,23.70
2016,07,24,16,24,23.70
2016,07,24,16,25,23.70
2016,07,24,16,26,23.80
2016,07,24,16,27,23.80
2016,07,24,16,28,23.90
2016,07,24,16,29,23.90
2016,07,24,16,30,23.90
2016,07,24,16,31,24.10
2016,07,24,16,32,24.10
2016,07,24,16,33,24.10
2016,07,24,16,34,24.00
2016,07,24,16,35,23.90
2016,07,24,16,36,23.90
2016,07,24,16,37,23.90
2016,07,24,16,38,23.90
2016,07,24,16,39,23.90
2016,07,24,16,40,23.90
2016,07,24,16,41,23.80
2016,07,24,16,42,23.90
2016,07,24,16,43,24.00
2016,07,24,16,44,24.10
2016,07,24,16,45,24.10
2016,07,24,16,46,24.10
2016,07,24,16,47,24.10
2016,07,24,16,48,24.10
2016,07,24,16,49,24.10
2016,07,24,16,50,24.10
2016,07,24,16,51,24.10
2016,07,24,16,52,23.90
2016,07,24,16,53,23.80
2016,07,24,16,54,23.70
2016,07,24,16,55,23.70
2016,07,24,16,56,23.70
2016,07,24,16,57,23.80
2016,07,24,16,58,23.80
2016,07,24,16,59,23.80
2016,07,24,17,00,23.80
2016,07,24,17,01,23.80
2016,07,24,17,02,23.80
2016,07,24,17,03,23.80
2016,07,24,17,04,23.80
2016,07,24,17,05,23.70
2016,07,24,17,06,23.70
2016,07,24,17,07,23.70
2016,07,24,17,08,23.70
2016,07,24,17,09,23.70
2016,07,24,17,10,23.70
2016,07,24,17,11,23.70
2016,07,24,17,12,23.70
2016,07,24,17,13,23.70
2016,07,24,17,14,23.70
2016,07,24,17,15,23.70
2016,07,24,17,16,23.60
2016,07,24,17,17,23.60
2016,07,24,17,18,23.60
2016,07,24,17,19,23.60